DL1NER Weather Reports


Display with metric or nautical units.
time (UTC)temp
F
wind
direction
speed
MPH
gust
MPH
rain 1hr
in
rain 24hr
in
rain mn
in
humidity
%
barometer
mb
20260902192010 65 325 0.0 3.0 0.00 0.00 0.00 63 1020.5
20260902191010 65 325 0.0 0.0 0.00 0.00 0.00 62 1020.4
20260902190010 66 325 0.0 0.0 0.00 0.00 0.00 61 1020.2
20260902185010 66 325 0.0 0.0 0.00 0.00 0.00 60 1020.2
20260902184010 67 325 1.0 2.0 0.00 0.00 0.00 59 1020.0
20260902183010 67 325 1.0 2.0 0.00 0.00 0.00 58 1019.9
20260902182010 68 325 0.0 0.0 0.00 0.00 0.00 57 1019.8
20260902181010 68 325 0.0 0.0 0.00 0.00 0.00 56 1019.7
20260902180011 69 325 1.0 2.0 0.00 0.00 0.00 55 1019.6
20260902175010 70 325 0.0 2.0 0.00 0.00 0.00 55 1019.5
20260902174010 70 325 2.0 4.0 0.00 0.00 0.00 54 1019.5
20260902173009 71 321 2.0 5.0 0.00 0.00 0.00 53 1019.4
20260902172010 71 321 2.0 5.0 0.00 0.00 0.00 53 1019.4
20260902171010 72 299 4.0 8.0 0.00 0.00 0.00 53 1019.4
20260902170011 71 263 4.0 9.0 0.00 0.00 0.00 54 1019.4
20260902165010 71 304 3.0 8.0 0.00 0.00 0.00 54 1019.4
20260902164009 72 294 3.0 9.0 0.00 0.00 0.00 53 1019.3
20260902163011 72 275 6.0 11.0 0.00 0.00 0.00 54 1019.3
20260902162009 72 263 3.0 7.0 0.00 0.00 0.00 53 1019.4
20260902161009 73 268 3.0 7.0 0.00 0.00 0.00 53 1019.3
20260902160011 73 268 3.0 7.0 0.00 0.00 0.00 53 1019.3
20260902155010 73 267 2.0 10.0 0.00 0.00 0.00 52 1019.4
20260902154009 73 255 3.0 9.0 0.00 0.00 0.00 53 1019.5
20260902153015 73 255 2.0 9.0 0.00 0.00 0.00 53 1019.5
20260902152013 74 268 5.0 11.0 0.00 0.00 0.00 52 1019.5
20260902151013 74 242 5.0 15.0 0.00 0.00 0.00 52 1019.5
20260902150014 74 238 2.0 5.0 0.00 0.00 0.00 52 1019.4
20260902145013 75 273 2.0 6.0 0.00 0.00 0.00 49 1019.4
20260902144013 75 230 3.0 7.0 0.00 0.00 0.00 50 1019.5
20260902143013 76 239 3.0 7.0 0.00 0.00 0.00 49 1019.5
20260902142013 76 225 4.0 10.0 0.00 0.00 0.00 47 1019.6
20260902141013 77 290 5.0 13.0 0.00 0.00 0.00 48 1019.6
20260902140013 77 221 4.0 10.0 0.00 0.00 0.00 51 1019.5
20260902135013 76 289 4.0 8.0 0.00 0.00 0.00 48 1019.6
20260902134013 77 277 3.0 8.0 0.00 0.00 0.00 47 1019.6
20260902133013 75 153 4.0 9.0 0.00 0.00 0.00 50 1019.6
20260902132013 75 275 5.0 11.0 0.00 0.00 0.00 50 1019.7
20260902131013 75 274 4.0 9.0 0.00 0.00 0.00 51 1019.7
20260902130013 75 231 3.0 7.0 0.00 0.00 0.00 49 1019.9
20260902125012 75 260 2.0 6.0 0.00 0.00 0.00 52 1019.8
20260902124012 75 262 4.0 8.0 0.00 0.00 0.00 53 1019.9
20260902123013 76 261 1.0 4.0 0.00 0.00 0.00 53 1020.0
20260902122013 75 254 1.0 4.0 0.00 0.00 0.00 52 1020.0
20260902121013 74 255 1.0 4.0 0.00 0.00 0.00 53 1020.1
20260902120012 73 339 3.0 8.0 0.00 0.00 0.00 55 1020.2
20260902115012 73 312 3.0 8.0 0.00 0.00 0.00 53 1020.4
20260902114012 75 250 3.0 7.0 0.00 0.00 0.00 52 1020.4
20260902113012 76 132 3.0 7.0 0.00 0.00 0.00 51 1020.6
20260902112012 76 138 3.0 7.0 0.00 0.00 0.00 52 1020.6
20260902111012 75 290 3.0 8.0 0.00 0.00 0.00 50 1020.7
20260902110012 74 180 3.0 7.0 0.00 0.00 0.00 50 1020.9
20260902105012 74 153 2.0 5.0 0.00 0.00 0.00 59 1021.0
20260902104012 73 139 2.0 5.0 0.00 0.00 0.00 62 1021.2
20260902103012 72 197 3.0 5.0 0.00 0.00 0.00 62 1021.3
20260902102012 71 132 2.0 7.0 0.00 0.00 0.00 64 1021.4
20260902101012 70 90 1.0 4.0 0.00 0.00 0.00 64 1021.5
20260902100012 69 80 0.0 3.0 0.00 0.00 0.00 69 1021.6
20260902095012 68 78 0.0 1.0 0.00 0.00 0.00 71 1021.7
20260902094012 67 78 0.0 2.0 0.00 0.00 0.00 71 1021.6
20260902093012 67 79 1.0 4.0 0.00 0.00 0.00 74 1021.7
20260902092011 66 79 2.0 4.0 0.00 0.00 0.00 75 1021.7
20260902091011 65 79 2.0 4.0 0.00 0.00 0.00 74 1021.7
20260902090011 65 78 3.0 4.0 0.00 0.00 0.00 74 1021.7
20260902085011 65 82 3.0 5.0 0.00 0.00 0.00 76 1021.6
20260902084011 64 80 2.0 4.0 0.00 0.00 0.00 77 1021.6
20260902083011 63 80 2.0 4.0 0.00 0.00 0.00 78 1021.5
20260902082012 63 80 2.0 3.0 0.00 0.00 0.00 80 1021.6
20260902081011 62 80 2.0 4.0 0.00 0.00 0.00 83 1021.4
20260902080011 62 81 2.0 4.0 0.00 0.00 0.00 84 1021.4
20260902075011 61 80 2.0 4.0 0.00 0.00 0.00 83 1021.4
20260902074012 60 80 2.0 4.0 0.00 0.00 0.00 85 1021.3
20260902073011 60 80 2.0 4.0 0.00 0.00 0.00 85 1021.2
20260902072012 59 80 2.0 4.0 0.00 0.00 0.00 86 1021.1
20260902071011 58 80 2.0 4.0 0.00 0.00 0.00 87 1021.2
20260902070011 57 80 2.0 4.0 0.00 0.00 0.00 88 1021.2
20260902065011 57 79 2.0 3.0 0.00 0.00 0.00 88 1021.3
20260902064011 56 78 1.0 3.0 0.00 0.00 0.00 90 1021.1
20260902063011 55 78 1.0 4.0 0.00 0.00 0.00 91 1021.2
20260902062011 55 78 2.0 4.0 0.00 0.00 0.00 92 1021.2
20260902061011 54 75 2.0 4.0 0.00 0.00 0.00 92 1021.1
20260902060011 53 69 2.0 4.0 0.00 0.00 0.00 92 1021.1
20260902055012 53 68 2.0 4.0 0.00 0.00 0.00 92 1021.2
20260902054012 52 67 0.0 2.0 0.00 0.00 0.00 92 1021.3
20260902053011 51 67 0.0 1.0 0.00 0.00 0.00 92 1021.2
20260902052011 51 222 0.0 0.0 0.00 0.00 0.00 92 1021.2
20260902051010 51 222 0.0 0.0 0.00 0.00 0.00 91 1021.2
20260902050011 51 259 0.0 0.0 0.00 0.00 0.00 91 1021.2
20260902045011 51 259 0.0 0.0 0.00 0.00 0.00 91 1021.1
20260902044011 51 259 0.0 0.0 0.00 0.00 0.00 91 1021.1
20260902043020 51 259 0.0 0.0 0.00 0.00 0.00 90 1021.1
20260902042010 51 259 0.0 0.0 0.00 0.00 0.00 89 1021.1
20260902041010 51 259 0.0 0.0 0.00 0.00 0.00 89 1021.1
20260902040011 51 259 0.0 0.0 0.00 0.00 0.00 89 1021.1
20260902035015 51 259 0.0 0.0 0.00 0.00 0.00 89 1021.1
20260902034014 51 259 0.0 0.0 0.00 0.00 0.00 89 1021.2
20260902033014 51 259 0.0 0.0 0.00 0.00 0.00 89 1021.2
20260902032015 51 259 0.0 0.0 0.00 0.00 0.00 88 1021.1
20260902031015 51 259 0.0 0.0 0.00 0.00 0.00 88 1021.1
20260902030014 52 259 0.0 0.0 0.00 0.00 0.00 88 1021.2
20260902025014 52 259 0.0 0.0 0.00 0.00 0.00 88 1021.2
20260902024014 52 259 0.0 0.0 0.00 0.00 0.00 88 1021.3
20260902023014 52 259 0.0 0.0 0.00 0.00 0.00 86 1021.2
20260902022014 52 259 0.0 0.0 0.00 0.00 0.00 85 1021.3
20260902021014 52 259 0.0 0.0 0.00 0.00 0.00 85 1021.4
20260902020014 53 259 0.0 0.0 0.00 0.00 0.00 85 1021.3
20260902015014 53 259 0.0 0.0 0.00 0.00 0.00 85 1021.4
20260902014014 53 259 0.0 0.0 0.00 0.00 0.00 84 1021.3
20260902013013 53 259 0.0 0.0 0.00 0.00 0.00 83 1021.3
20260902012014 53 259 0.0 0.0 0.00 0.00 0.00 83 1021.3
20260902011014 53 259 0.0 0.0 0.00 0.00 0.00 81 1021.2
20260902010014 53 259 0.0 0.0 0.00 0.00 0.00 81 1021.4
20260902005013 53 259 0.0 0.0 0.00 0.00 0.00 79 1021.3
20260902004013 53 259 0.0 0.0 0.00 0.00 0.00 77 1021.3
20260902003013 53 259 0.0 0.0 0.00 0.00 0.00 77 1021.3
20260902002013 54 259 0.0 0.0 0.00 0.00 0.00 76 1021.3
20260902001013 54 259 0.0 0.0 0.00 0.00 0.00 76 1021.4
20260902000013 54 259 0.0 0.0 0.00 0.00 0.00 75 1021.4
20260901235013 55 259 0.0 0.0 0.00 0.00 0.00 75 1021.4
20260901234013 55 259 0.0 0.0 0.00 0.00 0.00 75 1021.3
20260901233013 55 259 0.0 0.0 0.00 0.00 0.00 74 1021.3
20260901232013 55 259 0.0 0.0 0.00 0.00 0.00 74 1021.3
20260901231013 56 259 0.0 0.0 0.00 0.00 0.00 73 1021.3
20260901230013 56 259 0.0 0.0 0.00 0.00 0.00 73 1021.3
20260901225013 56 259 0.0 0.0 0.00 0.00 0.00 73 1021.4
20260901224013 56 259 0.0 0.0 0.00 0.00 0.00 72 1021.3
20260901223013 56 259 0.0 0.0 0.00 0.00 0.00 72 1021.2
20260901222012 57 259 0.0 0.0 0.00 0.00 0.00 71 1021.2
20260901221013 57 259 0.0 0.0 0.00 0.00 0.00 71 1021.3
20260901220013 57 259 0.0 0.0 0.00 0.00 0.00 71 1021.2
20260901215013 57 259 0.0 0.0 0.00 0.00 0.00 71 1021.3
20260901214012 58 259 0.0 0.0 0.00 0.00 0.00 70 1021.2
20260901213012 58 259 0.0 0.0 0.00 0.00 0.00 69 1021.2
20260901212012 58 259 0.0 0.0 0.00 0.00 0.00 69 1021.3
20260901211012 59 259 0.0 0.0 0.00 0.00 0.00 69 1021.2
20260901210012 59 259 0.0 0.0 0.00 0.00 0.00 69 1021.2
20260901205013 59 259 0.0 1.0 0.00 0.00 0.00 68 1021.2
20260901204012 60 259 1.0 3.0 0.00 0.00 0.00 68 1021.1
20260901203012 60 259 0.0 0.0 0.00 0.00 0.00 67 1021.1
20260901202012 60 259 0.0 0.0 0.00 0.00 0.00 67 1021.1
20260901201012 60 259 0.0 0.0 0.00 0.00 0.00 67 1021.1
20260901200013 61 259 0.0 0.0 0.00 0.00 0.00 66 1021.1
20260901195013 62 259 1.0 3.0 0.00 0.00 0.00 65 1021.0
20260901194012 62 259 2.0 4.0 0.00 0.00 0.00 63 1021.0
20260901193013 63 259 2.0 3.0 0.00 0.00 0.00 62 1020.9